BEIDOU-2 G5 (38091 NORAD) Tracking and Keplerian Element Data

This shows tracking and keplerian element data for the satellite.

Feedback or suggestion? Click here.




ElementValue
Catalog38091
NameBEIDOU-2 G5
Epoch Orbit4737
Epoch Day34.71919573
Epoch Year2025
RAAN71.2331
Inclination2.3303
Eccentricity0.0013658
Argument of Perigee240.6491
Mean Anonmoly139.852
Mean Motion1.00269511
Decay Rate6.1E-07
L11 38091U 12008A 25034.71919573 .00000061 00000+0 00000+0 0 9993
L22 38091 2.3303 71.2331 0013658 240.6491 139.8520 1.00269511 47374



Live tracking and technical data element details for BEIDOU-2 G5 (NORAD 38091). BEIDOU-2 G5 can be tracked NOW for your location showing map with azimuth and elevation plus other details from your city location.







IsCatalogInMostPopularTable: catalog: 38091, numindb: 511
Update: records affected: 1



GetName: 38091 BEIDOU-2 G5

Hit Count: updated at: Thu, 15 May 2025 11:02:22 GMT